Weather History for KSGT - September, 2013

Change the Weather History Date:

Sunday, September 29, 2013

  Actual Average Record
Temperature  
Mean Temperature 71 °F -  
Max Temperature 73 °F 79 °F 93 °F (2011)
Min Temperature 69 °F 56 °F 42 °F (2003)
Cooling Degree Days 6    
Growing Degree Days 21 (Base 50)    
Moisture  
Dew Point 64 °F    
Average Humidity 78    
Maximum Humidity 88    
Minimum Humidity 69    
Precipitation  
Precipitation 0.00 in - - ()
Sea Level Pressure  
Sea Level Pressure 29.98 in    
Wind  
Wind Speed 8 mph (SE)    
Max Wind Speed 13 mph    
Max Gust Speed -    
Visibility 10 miles    
Events      
Averages and records for this station are not official NWS values.
T = Trace of Precipitation, MM = Missing Value Source: NWS Daily Summary

Daily Weather History Graph

Daily Weather History Graph

Search for Another Location

Airport or City:

Trip Planner

Search our weather history database for the weather conditions in past years. The results will help you decide how hot, cold, wet, or windy it might be!

Date:

Astronomy

Sep. 29, 2013 Rise Set
Actual Time 6:59 AM CDT 6:52 PM CDT
Civil Twilight 6:34 AM CDT 7:17 PM CDT
Nautical Twilight 6:05 AM CDT 7:47 PM CDT
Astronomical Twilight 5:35 AM CDT 8:16 PM CDT
Moon 1:52 AM CDT (9/29) 3:39 PM CDT (9/29)
Length of Visible Light 12h 43m
Length of Day
11h 53m
Waning Crescent, 27% of the Moon is Illuminated
Sep 29
Waning Crescent
Oct 4
New
Oct 11
First Quarter
Oct 18
Full
Oct 26
Last Quarter

Hourly Weather History & Observations

Time (CDT) Temp. Dew Point Humidity Pressure Visibility Wind Dir Wind Speed Gust Speed Precip Events Conditions
12:15 AM 73.4 °F 62.6 °F 69% 30.00 in 10.0 mi SE 10.4 mph - N/A   Mostly Cloudy
12:35 AM 73.4 °F 62.6 °F 69% 30.01 in 10.0 mi SSE 10.4 mph - N/A   Overcast
12:55 AM 73.4 °F 62.6 °F 69% 30.01 in 10.0 mi SSE 10.4 mph - N/A   Overcast
1:15 AM 73.4 °F 62.6 °F 69% 30.01 in 10.0 mi SSE 9.2 mph - N/A   Scattered Clouds
1:35 AM 73.4 °F 62.6 °F 69% 30.01 in 10.0 mi South 8.1 mph - N/A   Mostly Cloudy
1:55 AM 73.4 °F 62.6 °F 69% 30.01 in 10.0 mi South 9.2 mph - N/A   Mostly Cloudy
2:15 AM 73.4 °F 62.6 °F 69% 30.02 in 10.0 mi South 6.9 mph - N/A   Overcast
2:35 AM 73.4 °F 62.6 °F 69% 30.01 in 10.0 mi South 6.9 mph - N/A   Mostly Cloudy
2:55 AM 71.6 °F 62.6 °F 73% 30.01 in 10.0 mi South 4.6 mph - N/A   Overcast
3:15 AM 71.6 °F 62.6 °F 73% 30.01 in 10.0 mi SSE 5.8 mph - N/A   Overcast
3:35 AM 71.6 °F 62.6 °F 73% 30.00 in 10.0 mi SE 5.8 mph - N/A   Overcast
3:55 AM 71.6 °F 62.6 °F 73% 30.00 in 10.0 mi SE 6.9 mph - N/A   Mostly Cloudy
4:15 AM 69.8 °F 62.6 °F 78% 30.00 in 10.0 mi SSE 5.8 mph - N/A   Overcast
4:35 AM 69.8 °F 62.6 °F 78% 30.00 in 10.0 mi SSE 5.8 mph - N/A   Mostly Cloudy
4:55 AM 69.8 °F 62.6 °F 78% 30.00 in 10.0 mi SSE 5.8 mph - N/A   Overcast
5:15 AM 69.8 °F 62.6 °F 78% 30.01 in 10.0 mi SSE 5.8 mph - N/A   Overcast
5:35 AM 69.8 °F 62.6 °F 78% 30.01 in 10.0 mi SSE 6.9 mph - N/A   Overcast
5:55 AM 71.6 °F 62.6 °F 73% 30.01 in 10.0 mi SSE 6.9 mph - N/A   Overcast
6:15 AM 69.8 °F 62.6 °F 78% 30.01 in 10.0 mi SSE 6.9 mph - N/A   Overcast
6:35 AM 69.8 °F 62.6 °F 78% 30.01 in 10.0 mi SSE 6.9 mph - N/A   Overcast
6:55 AM 69.8 °F 62.6 °F 78% 30.01 in 10.0 mi SSE 8.1 mph - N/A   Overcast
7:15 AM 69.8 °F 62.6 °F 78% 30.01 in 10.0 mi SSE 6.9 mph - N/A   Overcast
7:35 AM 69.8 °F 62.6 °F 78% 30.01 in 10.0 mi SSE 6.9 mph - N/A   Overcast
7:55 AM 69.8 °F 62.6 °F 78% 30.01 in 10.0 mi SE 5.8 mph - N/A   Overcast
8:15 AM 69.8 °F 62.6 °F 78% 30.01 in 10.0 mi SE 8.1 mph - N/A   Overcast
8:35 AM 71.6 °F 62.6 °F 73% 30.01 in 10.0 mi SSE 8.1 mph - N/A   Overcast
8:55 AM 71.6 °F 62.6 °F 73% 30.01 in 10.0 mi SSE 6.9 mph - N/A   Overcast
9:15 AM 71.6 °F 62.6 °F 73% 30.01 in 10.0 mi SSE 9.2 mph - N/A   Overcast
9:35 AM 73.4 °F 62.6 °F 69% 30.02 in 10.0 mi South 12.7 mph - N/A   Overcast
9:55 AM 71.6 °F 62.6 °F 73% 30.02 in 10.0 mi SSE 9.2 mph - N/A   Overcast
10:15 AM 71.6 °F 62.6 °F 73% 30.02 in 10.0 mi South 9.2 mph - N/A   Overcast
10:35 AM 71.6 °F 64.4 °F 78% 30.02 in 10.0 mi South 10.4 mph - N/A   Overcast
10:55 AM 71.6 °F 64.4 °F 78% 30.02 in 10.0 mi SSE 10.4 mph - N/A   Overcast
11:15 AM 73.4 °F 64.4 °F 73% 30.02 in 10.0 mi South 11.5 mph - N/A   Overcast
11:35 AM 73.4 °F 64.4 °F 73% 30.02 in 10.0 mi South 9.2 mph - N/A   Overcast
11:55 AM 71.6 °F 62.6 °F 73% 30.02 in 10.0 mi South 11.5 mph - N/A   Overcast
12:15 PM 73.4 °F 64.4 °F 73% 30.01 in 10.0 mi South 11.5 mph - N/A   Overcast
12:35 PM 71.6 °F 64.4 °F 78% 30.01 in 10.0 mi South 9.2 mph - N/A   Overcast
12:55 PM 73.4 °F 64.4 °F 73% 30.00 in 10.0 mi South 9.2 mph - N/A   Overcast
1:35 PM 73.4 °F 64.4 °F 73% 29.98 in 10.0 mi South 8.1 mph - N/A   Overcast
1:55 PM 71.6 °F 64.4 °F 78% 29.97 in 10.0 mi South 9.2 mph - N/A   Overcast
2:15 PM 73.4 °F 64.4 °F 73% 29.97 in 10.0 mi South 9.2 mph - N/A   Overcast
2:35 PM 71.6 °F 66.2 °F 83% 29.96 in 10.0 mi South 6.9 mph - N/A   Overcast
2:55 PM 73.4 °F 66.2 °F 78% 29.95 in 10.0 mi SSE 8.1 mph - N/A   Overcast
3:15 PM 73.4 °F 66.2 °F 78% 29.95 in 10.0 mi ESE 5.8 mph - N/A   Overcast
3:35 PM 73.4 °F 66.2 °F 78% 29.95 in 10.0 mi SE 6.9 mph - N/A   Overcast
3:55 PM 71.6 °F 66.2 °F 83% 29.94 in 10.0 mi SE 6.9 mph - N/A   Overcast
4:15 PM 71.6 °F 66.2 °F 83% 29.94 in 10.0 mi ESE 5.8 mph - N/A   Overcast
4:35 PM 71.6 °F 66.2 °F 83% 29.95 in 10.0 mi ESE 4.6 mph - N/A   Overcast
4:55 PM 71.6 °F 66.2 °F 83% 29.94 in 10.0 mi ESE 5.8 mph - N/A   Overcast
5:15 PM 71.6 °F 66.2 °F 83% 29.94 in 10.0 mi ESE 5.8 mph - N/A   Overcast
5:35 PM 71.6 °F 66.2 °F 83% 29.94 in 10.0 mi ESE 4.6 mph - N/A   Overcast
5:55 PM 71.6 °F 66.2 °F 83% 29.95 in 10.0 mi ESE 4.6 mph - N/A   Overcast
6:15 PM 71.6 °F 66.2 °F 83% 29.95 in 10.0 mi ESE 8.1 mph - N/A   Overcast
6:35 PM 71.6 °F 66.2 °F 83% 29.95 in 10.0 mi East 4.6 mph - N/A   Overcast
6:55 PM 71.6 °F 66.2 °F 83% 29.95 in 10.0 mi East 4.6 mph - N/A   Overcast
7:15 PM - - N/A% 29.94 in 10.0 mi North - - N/A   Overcast
7:35 PM 71.6 °F 66.2 °F 83% 29.95 in 10.0 mi East 5.8 mph - N/A   Overcast
7:55 PM 71.6 °F 66.2 °F 83% 29.96 in 10.0 mi ESE 5.8 mph - N/A   Overcast
8:15 PM 71.6 °F 66.2 °F 83% 29.96 in 9.0 mi East 6.9 mph - N/A   Overcast
8:35 PM 71.6 °F 66.2 °F 83% 29.96 in 10.0 mi East 4.6 mph - N/A   Overcast
8:55 PM 69.8 °F 66.2 °F 88% 29.96 in 10.0 mi East 6.9 mph - N/A   Overcast
9:15 PM 69.8 °F 66.2 °F 88% 29.96 in 10.0 mi ENE 9.2 mph - N/A   Overcast
9:35 PM 69.8 °F 66.2 °F 88% 29.95 in 10.0 mi ENE 8.1 mph - N/A   Overcast
9:55 PM 69.8 °F 66.2 °F 88% 29.95 in 10.0 mi East 6.9 mph - N/A   Overcast
10:15 PM 69.8 °F 66.2 °F 88% 29.95 in 10.0 mi East 5.8 mph - N/A   Overcast
10:35 PM 69.8 °F 66.2 °F 88% 29.95 in 10.0 mi East 5.8 mph - N/A   Overcast
10:55 PM 69.8 °F 66.2 °F 88% 29.95 in 10.0 mi ENE 5.8 mph - N/A   Overcast
11:15 PM 69.8 °F 66.2 °F 88% 29.95 in 10.0 mi ENE 5.8 mph - N/A   Overcast
11:35 PM 69.8 °F 66.2 °F 88% 29.94 in 10.0 mi ENE 6.9 mph - N/A   Overcast
11:55 PM 69.8 °F 66.2 °F 88% 29.94 in 10.0 mi ENE 6.9 mph - N/A   Overcast